Tracking 28920 objects as of 25-May-2024
HD Live streaming from Space Station
objects crossing your sky now

COSMOS 1304

Track COSMOS 1304 now!
10-day predictions
COSMOS 1304 is classified as:


NORAD ID: 12803
Int'l Code: 1981-087A
Perigee: 910.8 km
Apogee: 977.0 km
Inclination: 82.9 °
Period: 103.8 minutes
Semi major axis: 7314 km
RCS: 1.592 m2 (large)
Launch date: September 4, 1981
Source: Commonwealth of Independent States (former USSR) (CIS)
Launch site: PLESETSK MISSILE AND SPACE COMPLEX (PKMTR)
Your satellite tracking list
Your tracking list is empty




NASA's NSSDC Master Catalog

Two Line Element Set (TLE):
1 12803U 81087A   24145.83571465  .00000162  00000-0  12299-3 0  9998
2 12803  82.9354 255.0190 0045214 208.6385 151.2295 13.87687287538421
Source of the keplerian elements: AFSPC